Location: Joplin, MO
(37.0842°N, 94.5133°W)
Time: 11:28:25
(UTC+02:00)

Vanguard 3 - Pass Details

Date: 08 April 2023
Orbit: 507 x 3246 km, 33.4° (Epoch: 01 June)

Event Time Altitude Azimuth Distance (km) Brightness Sun altitude
Rises 14:35:46 0° 283° (WNW) 6,966 11.3 7.5°
Reaches altitude 10° 14:41:10 10° 274° (W) 6,109 11.0 8.6°
Maximum altitude 14:56:35 30° 223° (SW) 4,559 10.7 11.6°
Drops below altitude 10° 15:10:13 10° 170° (S) 5,329 11.5 14.4°
Sets 15:14:36 0° 160° (SSE) 5,984 11.9 15.2°
